Stations météo

réclame
Mon MeteoGroup
Millau, France (7558): Température de l'air & dewpoint: 09.09.2019 12:00:00 - 15.09.2019 12:00:00 (CEST)Millau, France (7558): Température de l'air 5cm: 09.09.2019 12:00:00 - 15.09.2019 12:00:00 (CEST)Millau, France (7558): Température de l'air -20cm & Température de l'air -100cm: 09.09.2019 12:00:00 - 15.09.2019 12:00:00 (CEST)Millau, France (7558): Vitesse du vent & gusts: 09.09.2019 12:00:00 - 15.09.2019 12:00:00 (CEST)Millau, France (7558): Direction du vent: 09.09.2019 12:00:00 - 15.09.2019 12:00:00 (CEST)Millau, France (7558): reduced air pressure: 09.09.2019 12:00:00 - 15.09.2019 12:00:00 (CEST)Millau, France (7558): visibility: 09.09.2019 12:00:00 - 15.09.2019 12:00:00 (CEST)Millau, France (7558): Ensoleillement: 09.09.2019 12:00:00 - 15.09.2019 12:00:00 (CEST)Millau, France (7558): Quantités de précipitations: 09.09.2019 12:00:00 - 15.09.2019 12:00:00 (CEST)
Date & Time tt [°C] td [°C] tt 5cm [°C] tt -20cm [°C] tt -100cm [°C] ff [km/h] ff [knt] fx [km/h] fx [knt] dd ppp [hPa] vv [km] sd [min] rr [mm]
15.09.2019 12:00:00 24,5 9,2 25,1 20,7 20,2 24 13 36 19 SE 1022,1 20 57 0,0
15.09.2019 11:00:00 21,5 10,6 23,1 20,8 20,2 7 4 14 8 SE 1023,2 20 17 0,0
15.09.2019 10:00:00 18,2 9,8 13,4 20,9 20,2 4 2 32 17 NNE 1024,0 20 6 0,0
15.09.2019 09:00:00 16,2 9,8 14,3 20,9 20,1 19 10 25 14 NE 1024,0 19 34 0,0
15.09.2019 08:00:00 15,3 9,2 14,1 21,0 20,2 12 7 18 10 NNE 1024,5 20 0 0,0
15.09.2019 07:00:00 17,1 8,2 15,3 21,1 20,1 12 7 16 9 ESE 1024,4 20 0 0,0
15.09.2019 06:00:00 16,8 8,5 14,4 21,2 20,2 0 0 10 6 N 1024,5 20 0 0,0
15.09.2019 05:00:00 17,2 8,6 15,9 21,2 20,1 10 6 16 8 NE 1024,3 20 0 0,0
15.09.2019 04:00:00 17,8 8,1 16,2 21,3 20,1 8 5 13 7 E 1024,7 20 0 0,0
15.09.2019 03:00:00 17,8 8,9 17,1 21,3 20,1 9 5 14 8 ENE 1025,0 20 0 0,0
15.09.2019 02:00:00 18,7 8,6 - - - 9 5 11 6 ENE 1025,0 20 - -
15.09.2019 01:00:00 19,0 8,6 17,6 21,4 20,1 9 5 16 8 E 1025,0 20 0 0,0
15.09.2019 00:00:00 18,7 8,9 17,7 21,4 20,1 14 8 18 10 ESE 1025,3 20 0 0,0
14.09.2019 23:00:00 19,8 8,5 18,4 21,4 20,1 12 7 16 9 E 1025,1 20 0 0,0
14.09.2019 22:00:00 20,5 8,5 - - - 11 6 13 7 ESE 1025,0 20 - 0,0
14.09.2019 21:00:00 21,9 8,7 19,9 21,3 20,1 5 3 17 9 SE 1024,5 20 0 0,0
14.09.2019 20:00:00 22,6 9,7 21,9 21,2 20,1 14 8 26 14 SSE 1023,9 20 39 0,0
14.09.2019 19:00:00 24,9 10,7 26,8 21,0 20,1 18 10 31 17 SSE 1022,9 20 60 0,0
14.09.2019 18:00:00 26,7 10,8 30,2 20,8 20,1 20 11 29 15 SSE 1022,2 20 60 0,0
14.09.2019 17:00:00 27,7 8,5 31,7 20,7 20,1 11 6 28 15 SE 1021,9 20 60 0,0
14.09.2019 16:00:00 27,5 9,8 32,7 20,6 20,1 11 6 27 15 ESE 1022,5 20 60 0,0
14.09.2019 15:00:00 27,5 11,1 - - - 5 3 16 9 SSE 1023,2 18 - 0,0
14.09.2019 14:00:00 26,4 12,1 30,4 20,5 20,1 5 3 12 7 SE 1023,8 20 57 0,0
14.09.2019 13:00:00 22,6 13,1 23,4 20,6 20,1 4 2 9 5 NNE 1025,5 20 9 0,0
14.09.2019 12:00:00 19,7 11,5 20,4 20,6 20,1 2 1 18 10 N 1026,4 20 0 0,0
14.09.2019 11:00:00 19,2 11,0 18,1 20,7 20,2 11 6 23 12 ENE 1026,5 20 0 0,0
14.09.2019 10:00:00 18,6 10,2 19,7 20,8 20,1 7 4 15 8 N 1026,6 20 27 0,0
14.09.2019 09:00:00 17,7 9,3 16,0 20,8 20,1 9 5 16 8 NNE 1027,1 20 1 0,0
14.09.2019 08:00:00 16,3 9,0 13,9 20,9 20,1 9 5 14 7 NNE 1027,2 20 0 0,0
14.09.2019 07:00:00 15,8 8,8 13,3 21,0 20,1 6 3 10 6 NNE 1027,3 20 0 0,0
14.09.2019 06:00:00 16,7 8,6 14,4 21,1 20,1 7 4 11 6 NE 1027,1 20 0 0,0
14.09.2019 05:00:00 16,7 8,6 15,0 21,2 20,1 8 5 16 9 NE 1027,4 20 0 0,0
14.09.2019 04:00:00 17,6 8,4 15,2 21,3 20,1 7 4 9 5 NNE 1027,2 20 0 0,0
14.09.2019 03:00:00 17,9 8,5 15,4 21,3 20,1 4 2 8 4 ESE 1027,4 20 0 0,0
14.09.2019 02:00:00 18,2 8,5 15,9 21,4 20,1 8 4 11 6 NNE 1027,2 20 0 0,0
14.09.2019 01:00:00 18,7 8,4 15,8 21,4 20,1 6 3 9 5 NNE 1027,1 20 0 0,0
14.09.2019 00:00:00 19,6 8,3 16,9 21,5 20,2 0 0 5 3 N 1027,3 20 0 0,0
13.09.2019 23:00:00 20,2 8,5 17,9 21,4 20,1 4 2 7 4 ENE 1027,0 20 0 0,0
13.09.2019 22:00:00 21,3 8,2 18,3 21,4 20,1 3 2 13 7 N 1026,5 20 0 0,0
13.09.2019 21:00:00 22,1 8,6 20,9 21,3 20,1 10 5 20 11 E 1026,2 20 0 0,0
13.09.2019 20:00:00 22,5 8,6 21,9 21,2 20,1 14 8 21 11 SSE 1025,9 20 0 0,0
13.09.2019 19:00:00 24,5 8,4 24,6 21,0 20,1 16 8 25 14 SSE 1025,6 20 44 0,0
13.09.2019 18:00:00 26,9 7,9 30,2 20,8 20,1 14 8 34 18 SSE 1024,9 20 60 0,0
13.09.2019 17:00:00 28,0 7,3 30,2 20,6 20,2 22 12 40 22 S 1024,8 20 50 0,0
13.09.2019 16:00:00 28,1 8,4 31,9 20,4 20,1 27 14 42 23 SSE 1025,2 20 60 0,0
13.09.2019 15:00:00 28,8 7,9 - - - 16 9 31 17 SSE 1024,8 20 - 0,0
13.09.2019 14:00:00 27,6 8,5 33,1 20,1 20,1 11 6 24 13 SSE 1025,6 20 60 0,0
13.09.2019 13:00:00 26,6 8,1 32,5 20,1 20,2 6 3 11 6 ESE 1026,3 18 60 0,0
13.09.2019 12:00:00 25,4 9,2 30,1 20,1 20,2 3 2 14 8 SSE 1027,0 20 60 0,0
13.09.2019 11:00:00 21,8 8,7 26,8 20,2 20,2 5 3 12 6 NNE 1028,1 20 60 0,0
13.09.2019 10:00:00 18,7 8,4 21,9 20,3 20,2 10 5 18 10 NNE 1029,0 20 60 0,0
13.09.2019 09:00:00 16,4 8,1 13,7 20,3 20,2 9 5 18 10 NNE 1029,4 20 60 0,0
13.09.2019 08:00:00 14,4 8,3 12,4 20,4 20,2 11 6 23 12 NNE 1029,9 20 15 0,0
13.09.2019 07:00:00 14,4 8,1 - - - 9 5 13 7 NNE 1030,1 20 - 0,0
13.09.2019 06:00:00 14,7 8,0 12,5 20,6 20,1 4 2 11 6 ESE 1030,2 20 0 0,0
13.09.2019 05:00:00 14,1 8,5 11,9 20,7 20,2 6 3 29 16 NE 1029,8 20 0 0,0
13.09.2019 04:00:00 14,5 8,9 - - - 9 5 21 11 NNE 1029,5 20 - 0,0
13.09.2019 03:00:00 16,0 9,0 13,4 20,8 20,2 11 6 16 9 NNE 1029,9 20 0 0,0
13.09.2019 02:00:00 16,7 8,6 - - - 5 3 8 4 NNE 1030,0 20 - -
13.09.2019 01:00:00 17,5 8,4 15,5 20,9 20,2 3 1 6 3 SE 1029,5 20 0 0,0
13.09.2019 00:00:00 17,7 8,3 15,8 20,9 20,2 6 3 14 8 SSW 1029,4 20 0 0,0
12.09.2019 23:00:00 17,8 8,4 16,7 20,9 20,2 12 7 21 11 SW 1029,6 20 0 0,0
12.09.2019 22:00:00 18,7 8,6 17,3 20,9 20,3 16 9 19 11 SW 1029,0 20 0 0,0
12.09.2019 21:00:00 20,0 8,6 19,0 20,8 20,2 17 9 21 11 SW 1028,2 20 0 0,0
12.09.2019 20:00:00 21,3 9,2 20,2 20,6 20,3 16 9 22 12 SSW 1027,5 20 43 0,0
12.09.2019 19:00:00 24,5 9,2 26,9 20,5 20,3 13 7 23 12 SSW 1026,2 20 60 0,0
12.09.2019 18:00:00 25,6 9,0 29,5 20,2 20,3 16 9 23 13 SSW 1025,7 20 60 0,0
12.09.2019 17:00:00 25,6 9,4 29,9 20,0 20,3 16 9 29 16 SW 1026,0 20 60 0,0
12.09.2019 16:00:00 26,0 7,6 30,5 19,8 20,3 16 9 30 16 SW 1026,3 20 60 0,0
12.09.2019 15:00:00 26,1 6,7 31,0 19,7 20,3 13 7 26 14 WSW 1026,4 20 60 0,0
12.09.2019 14:00:00 25,0 6,7 31,3 19,6 20,3 5 3 17 9 E 1026,9 19 60 0,0
12.09.2019 13:00:00 22,1 6,3 - - - 5 3 16 9 NNW 1028,2 20 - 0,0
12.09.2019 12:00:00 20,3 8,3 24,4 19,5 20,4 10 5 24 13 WSW 1029,2 20 60 0,0
12.09.2019 11:00:00 17,8 7,2 22,5 19,6 20,3 8 4 14 8 W 1029,4 20 60 0,0
12.09.2019 10:00:00 16,1 6,8 18,1 19,7 20,4 2 1 9 5 WNW 1029,4 20 60 0,0
12.09.2019 09:00:00 13,3 6,9 12,3 19,8 20,4 5 3 10 6 SW 1029,5 20 60 0,0
12.09.2019 08:00:00 13,2 3,5 - - - 5 3 24 13 NW 1029,0 20 - -
12.09.2019 07:00:00 14,1 3,5 12,0 19,9 20,4 12 6 27 14 NNW 1027,8 20 0 0,0
12.09.2019 06:00:00 14,2 3,3 11,4 20,0 20,4 20 11 26 14 N 1027,5 20 0 0,0
12.09.2019 05:00:00 13,6 4,2 11,6 20,1 20,4 10 6 22 12 NNW 1027,6 20 0 0,0
12.09.2019 04:00:00 13,4 4,8 12,0 20,2 20,5 16 9 34 19 NNW 1027,5 20 0 0,0
12.09.2019 03:00:00 14,3 4,8 12,3 20,2 20,4 27 15 34 18 NNE 1027,3 20 0 0,0
12.09.2019 02:00:00 14,8 4,8 12,5 20,2 20,5 16 9 21 12 N 1028,0 20 0 0,0
12.09.2019 01:00:00 15,2 5,1 13,6 20,3 20,4 14 8 28 15 N 1027,6 20 0 0,0
12.09.2019 00:00:00 15,5 6,2 13,2 20,3 20,5 12 6 19 10 N 1027,2 20 0 0,0
11.09.2019 23:00:00 15,6 8,8 14,6 20,3 20,5 15 8 23 12 SW 1027,2 20 0 0,0
11.09.2019 22:00:00 16,3 9,0 15,5 20,2 20,5 15 8 22 12 SW 1026,3 20 0 0,0
11.09.2019 21:00:00 18,6 6,1 17,5 20,2 20,5 17 9 35 19 WNW 1024,9 20 0 0,0
11.09.2019 20:00:00 19,8 6,9 19,1 20,1 20,5 22 12 38 21 NW 1023,4 20 45 0,0
11.09.2019 19:00:00 21,8 7,2 24,0 19,9 20,6 29 16 42 23 WNW 1022,4 20 60 0,0
11.09.2019 18:00:00 23,5 8,0 27,4 19,8 20,6 23 13 35 19 NW 1021,7 20 60 0,0
11.09.2019 17:00:00 22,5 10,6 26,9 19,6 20,6 21 12 31 17 SSW 1021,5 20 60 0,0
11.09.2019 16:00:00 22,7 12,3 26,5 19,5 20,6 21 11 30 16 SW 1021,7 20 60 0,0
11.09.2019 15:00:00 21,0 12,2 24,9 19,4 20,6 18 10 29 15 SW 1022,6 20 60 0,0
11.09.2019 14:00:00 19,9 11,1 24,5 19,3 20,6 20 11 28 15 SW 1023,0 20 60 0,0
11.09.2019 13:00:00 18,2 10,6 21,4 19,4 20,7 11 6 17 9 SW 1023,3 20 58 0,0
11.09.2019 12:00:00 15,7 11,1 16,2 19,4 20,7 11 6 16 9 SW 1024,1 20 17 0,0
11.09.2019 11:00:00 13,8 10,8 16,0 19,4 20,7 5 3 19 10 W 1024,0 20 0 0,0
11.09.2019 10:00:00 14,5 6,8 15,5 19,5 20,7 16 9 26 14 NNE 1023,0 20 53 0,0
11.09.2019 09:00:00 12,7 6,9 11,5 19,6 20,7 15 8 24 13 NNE 1022,6 20 60 0,0
11.09.2019 08:00:00 11,4 7,1 9,2 19,7 20,7 11 6 23 12 NE 1022,5 20 17 0,0
11.09.2019 07:00:00 10,4 8,0 8,6 19,7 20,7 14 8 22 12 NNE 1021,8 20 0 0,0
11.09.2019 06:00:00 10,0 9,7 9,7 19,7 20,7 8 4 12 6 W 1021,0 0,1 0 0,0
11.09.2019 05:00:00 10,4 10,1 10,2 19,8 20,8 6 3 10 5 WSW 1020,9 0,1 0 0,0
11.09.2019 04:00:00 10,9 10,0 10,7 19,9 20,7 6 3 11 6 NNW 1020,4 0,6 0 0,0
11.09.2019 03:00:00 11,1 9,8 10,8 19,9 20,8 6 3 16 8 W 1020,0 20 0 0,0
11.09.2019 02:00:00 11,7 9,6 10,9 20,0 20,8 6 3 10 6 W 1019,3 20 0 0,0
11.09.2019 01:00:00 12,8 7,2 11,7 20,1 20,8 7 4 19 11 NNE 1018,6 20 0 0,0
11.09.2019 00:00:00 13,1 7,1 12,2 20,1 20,8 13 7 23 12 N 1018,5 20 0 0,0
10.09.2019 23:00:00 13,1 7,1 12,1 20,2 20,8 19 10 29 16 N 1017,8 20 0 0,0
10.09.2019 22:00:00 12,7 7,8 12,1 20,2 20,8 18 10 22 12 N 1017,5 20 0 0,0
10.09.2019 21:00:00 12,5 9,1 11,8 20,3 20,9 8 4 11 6 NNE 1016,9 20 0 0,0
10.09.2019 20:00:00 12,5 9,7 11,8 20,3 20,8 9 5 18 10 NE 1016,0 20 0 0,2
10.09.2019 19:00:00 12,8 9,8 13,0 20,3 20,8 11 6 24 13 NNE 1015,4 20 0 0,0
10.09.2019 18:00:00 12,5 9,3 12,9 20,4 20,9 18 10 32 18 N 1014,8 20 0 0,0
10.09.2019 17:00:00 12,6 9,2 13,1 20,4 20,9 22 12 30 16 N 1014,2 20 0 0,0
10.09.2019 16:00:00 12,7 10,8 13,9 20,4 20,9 4 2 9 5 NNW 1013,9 20 0 0,0
10.09.2019 15:00:00 12,7 11,6 12,8 20,5 20,9 6 3 10 6 WSW 1014,1 20 0 0,0
10.09.2019 14:00:00 11,7 9,8 11,9 20,5 20,9 3 2 8 4 W 1014,1 20 0 0,2
10.09.2019 13:00:00 11,1 10,0 12,2 20,6 20,9 2 1 8 4 NW 1014,6 16 0 0,4
10.09.2019 12:00:00 10,3 9,1 11,6 20,6 20,9 6 4 12 6 NNE 1015,1 20 0 0,2
10.09.2019 11:00:00 9,7 8,9 9,9 20,7 20,9 8 4 13 7 N 1015,1 17 0 0,4
10.09.2019 10:00:00 9,1 8,8 9,6 20,8 20,9 3 2 10 5 ESE 1014,9 16 0 0,6
10.09.2019 09:00:00 8,8 8,5 8,8 20,9 20,9 6 3 10 5 NE 1014,6 1,7 0 1,0
10.09.2019 08:00:00 8,6 8,2 8,6 20,9 20,9 2 1 9 5 E 1014,7 7 0 2,5
10.09.2019 07:00:00 8,7 8,1 8,3 21,0 20,9 6 3 13 7 SE 1013,9 6 0 1,8
10.09.2019 06:00:00 8,7 7,1 8,0 21,1 20,9 8 4 17 9 W 1013,3 17 0 2,4
10.09.2019 05:00:00 10,7 4,6 8,3 21,1 20,9 10 5 14 8 WSW 1012,3 19 0 0,2
10.09.2019 04:00:00 11,8 2,3 11,1 21,2 21,0 5 3 7 4 SE 1011,9 20 0 0,0
10.09.2019 03:00:00 12,2 2,6 11,3 21,3 21,0 3 1 8 4 SE 1012,0 20 0 0,0
10.09.2019 02:00:00 12,6 1,0 12,0 21,3 21,0 0 0 12 6 N 1012,9 20 0 0,0
10.09.2019 01:00:00 13,6 0,9 13,0 21,4 21,0 7 4 10 5 SE 1013,2 20 0 0,0
10.09.2019 00:00:00 13,9 1,2 13,1 21,4 21,0 0 0 9 5 N 1013,8 20 0 0,0
09.09.2019 23:00:00 14,1 1,0 13,4 21,4 21,0 7 4 13 7 WSW 1013,9 20 0 0,0
09.09.2019 22:00:00 14,4 0,2 13,7 21,4 21,0 7 4 12 7 WSW 1013,7 20 0 0,0
09.09.2019 21:00:00 14,9 -0,4 14,4 21,3 21,0 5 3 15 8 W 1013,2 20 0 0,0
09.09.2019 20:00:00 15,9 -0,4 15,6 21,2 21,0 12 6 22 12 WSW 1012,5 20 0 0,0
09.09.2019 19:00:00 17,3 -1,9 17,8 21,1 21,0 12 6 22 12 SW 1012,1 20 3 0,0
09.09.2019 18:00:00 18,4 -1,5 20,5 21,0 21,0 14 8 25 13 SW 1012,1 20 39 0,0
09.09.2019 17:00:00 19,0 -1,5 21,5 20,9 21,1 14 8 26 14 SW 1012,3 20 8 0,0
09.09.2019 16:00:00 19,6 -0,4 23,9 20,7 21,1 19 10 30 16 SSW 1012,3 20 52 0,0
09.09.2019 15:00:00 19,3 0,3 22,6 20,6 21,0 13 7 27 15 SW 1013,1 20 42 0,0
09.09.2019 14:00:00 18,4 1,4 24,1 20,6 21,1 10 5 21 12 WSW 1013,9 20 60 0,0
09.09.2019 13:00:00 17,3 1,3 20,1 20,6 21,1 8 5 18 10 W 1014,9 20 55 0,0
09.09.2019 12:00:00 15,5 1,6 21,1 20,6 21,1 8 4 14 7 W 1015,9 20 60 0,0

tt = Température de l'air
td = dewpoint
tt 5cm = Température de l'air 5cm
tt -20cm = Température de l'air -20cm
tt -100cm = Température de l'air -100cm
ff = Vitesse du vent
fx = gusts
dd = Direction du vent
ppp = reduced air pressure
vv = visibility
sd = Ensoleillement
rr = Quantités de précipitations

stations d'obs. à proximité